Location: Alfortville
(48.8058°N, 2.4204°E)
Time: 04:41:49
(UTC+00:00)

USA 229 DEB - Pass Details

Date: 30 May 2022
Orbit: 934 x 1278 km, 63.4° (Epoch: 24 May)

Event Time Altitude Azimuth Distance (km) Brightness Sun altitude
Rises 23:51:54 0° 317° (NW) 3,970 7.4 -19.5°
Reaches altitude 10° 23:54:33 10° 313° (NW) 3,055 6.6 -19.4°
Maximum altitude 00:01:43 57° 237° (WSW) 1,403 4.1 -19.4°
Enters shadow 00:05:45 29° 173° (S) 2,100 4.6 -19.3°
